Location: Bh?mavarapp?du
(16.7041°N, 80.6518°E)
Time: 07:43:39
(UTC+00:00)

Delta 198 - Pass Details

Date: 21 April 2021
Orbit: 458 x 1018 km, 24.8° (Epoch: 05 May)

Event Time Altitude Azimuth Distance (km) Brightness Sun altitude
Exits shadow 22:48:39 51° 342° (NNW) 579 3.3 -21.2°
Maximum altitude 22:48:41 51° 344° (NNW) 579 3.4 -21.2°
Drops below altitude 10° 22:52:18 10° 61° (ENE) 1,648 6.9 -20.4°
Sets 22:54:38 0° 67° (ENE) 2,584 8.4 -19.9°
